sat.trackr.live / text

‹ back to catalog

STARLINK-36862

NORAD 68003 · 2026-039T

PAYLOAD ACTIVE UNKNOWN

§ Identity

Operator
Country
US
Launch date
2026-02-27
Launch site
AFETR
Launch vehicle
Mass (kg)
RCS (m²)

Purposes: comms

External: N2YO · Heavens-Above · Gunter

§ Orbital elements

Epoch: 2026-09-19T16:59:02.636160Z

Period
94.27 min
Inclination
43.0025°
Eccentricity
0.0002300
Mean motion
15.27585489 rev/d
Perigee alt
481.5 km
Apogee alt
484.6 km
Semi-major
6,861.2 km
B*
8.3013e-4
RAAN
33.4233°
Arg perigee
280.4292°
Mean anomaly
79.6300°
Rev number
3,137

§ Raw data

STARLINK-368621 68003U 26039T   26262.70766940  .00022656  00000+0  83013-3 0  99922 68003  43.0025  33.4233 0002300 280.4292  79.6300 15.27585489 31376

JSON: /api/v1/satellites/68003 · /tle

For live sub-satellite position, see the globe view (requires WebGL).

§ Visibility from observer

Set your observer location to see the next 7 days of passes ≥ 10°. The values pass through the URL so the page stays shareable.

No JS? Fill the form by hand. The geolocation button needs JavaScript.